GW0714 Weather Reports


Display with metric or nautical units.
time (UTC)temp
F
wind
direction
speed
MPH
gust
MPH
rain 1hr
in
rain 24hr
in
rain mn
in
humidity
%
barometer
mb
20260903171547 62 349 1.0 8.0 0.00 0.00 0.00 66 1015.2
20260903171033 61 318 0.0 8.0 0.00 0.00 0.00 66 1015.3
20260903170530 61 329 0.0 5.0 0.00 0.00 0.00 67 1015.4
20260903165532 60 325 0.0 3.0 0.00 0.00 0.00 68 1015.5
20260903165032 60 0 0.0 4.0 0.00 0.00 0.00 70 1015.5
20260903164550 60 332 0.0 4.0 0.00 0.00 0.00 70 1015.6
20260903164031 59 296 0.0 8.0 0.00 0.00 0.00 71 1015.5
20260903163530 59 0 2.0 8.0 0.00 0.00 0.00 71 1015.3
20260903163049 59 5 1.0 5.0 0.00 0.00 0.00 72 1015.4
20260903162530 59 325 0.0 4.0 0.00 0.00 0.00 74 1015.5
20260903162032 59 0 1.0 3.0 0.00 0.00 0.00 74 1015.5
20260903161546 59 0 0.0 3.0 0.00 0.00 0.00 74 1015.6
20260903161031 58 0 0.0 3.0 0.00 0.00 0.00 75 1015.6
20260903160530 58 0 0.0 3.0 0.00 0.00 0.00 75 1015.7
20260903160054 58 337 0.0 4.0 0.00 0.00 0.00 75 1015.7
20260903155530 58 0 1.0 4.0 0.00 0.00 0.00 75 1015.6
20260903155030 58 0 0.0 4.0 0.00 0.00 0.00 75 1015.8
20260903154557 58 0 0.0 3.0 0.00 0.00 0.00 76 1015.8
20260903154031 57 0 0.0 3.0 0.00 0.00 0.00 76 1015.8
20260903153532 57 0 0.0 3.0 0.00 0.00 0.00 76 1015.7
20260903153106 57 279 0.0 4.0 0.00 0.00 0.00 77 1015.7
20260903152528 57 269 1.0 4.0 0.00 0.00 0.00 77 1015.7
20260903152028 57 327 1.0 6.0 0.00 0.00 0.00 77 1015.7
20260903151549 56 291 0.0 9.0 0.00 0.00 0.00 78 1015.5
20260903151030 56 295 0.0 9.0 0.00 0.00 0.00 78 1015.5
20260903150530 56 286 2.0 10.0 0.00 0.00 0.00 78 1015.5
20260903150101 56 333 1.0 10.0 0.00 0.00 0.00 78 1015.4
20260903145528 56 314 3.0 10.0 0.00 0.00 0.00 78 1015.4
20260903145031 56 28 2.0 9.0 0.00 0.00 0.00 78 1015.5
20260903144545 56 331 2.0 9.0 0.00 0.00 0.00 79 1015.5
20260903144033 56 10 3.0 9.0 0.00 0.00 0.00 78 1015.4
20260903143533 56 0 2.0 9.0 0.00 0.00 0.00 79 1015.4
20260903143105 56 332 2.0 8.0 0.00 0.00 0.00 79 1015.4
20260903142532 56 352 1.0 4.0 0.00 0.00 0.00 79 1015.4
20260903142032 56 336 0.0 2.0 0.00 0.00 0.00 79 1015.4
20260903141549 56 0 0.0 2.0 0.00 0.00 0.00 79 1015.3
20260903141029 56 0 0.0 2.0 0.00 0.00 0.00 79 1015.3
20260903140527 56 0 0.0 2.0 0.00 0.00 0.00 79 1015.3
20260903140052 56 0 0.0 3.0 0.00 0.00 0.00 79 1015.3
20260903135530 56 0 0.0 3.0 0.00 0.00 0.00 78 1015.3
20260903135029 56 339 0.0 4.0 0.00 0.00 0.00 78 1015.2
20260903134549 56 278 0.0 4.0 0.00 0.00 0.00 78 1015.2
20260903134030 56 333 1.0 4.0 0.00 0.00 0.00 78 1015.2
20260903133527 56 0 0.0 5.0 0.00 0.00 0.00 78 1015.2
20260903133046 56 360 2.0 5.0 0.00 0.00 0.00 78 1015.2
20260903132529 56 5 1.0 5.0 0.00 0.00 0.00 77 1015.2
20260903132029 56 327 2.0 5.0 0.00 0.00 0.00 77 1015.2
20260903131554 56 33 1.0 4.0 0.00 0.00 0.00 77 1015.2
20260903131035 56 0 0.0 3.0 0.00 0.00 0.00 76 1015.1
20260903130533 56 348 0.0 6.0 0.00 0.00 0.00 76 1015.1
20260903130051 56 0 0.0 6.0 0.00 0.00 0.00 76 1015.0
20260903125530 57 0 1.0 6.0 0.00 0.00 0.00 76 1015.1
20260903125031 57 0 0.0 5.0 0.00 0.00 0.00 75 1015.0
20260903124549 57 0 0.0 8.0 0.00 0.00 0.00 75 1015.2
20260903124033 57 0 1.0 8.0 0.00 0.00 0.00 75 1015.2
20260903123529 57 0 1.0 6.0 0.00 0.00 0.00 74 1015.2
20260903123053 57 323 2.0 4.0 0.00 0.00 0.00 74 1015.2
20260903122532 57 300 1.0 6.0 0.00 0.00 0.00 74 1015.2
20260903122030 57 296 0.0 6.0 0.00 0.00 0.00 74 1015.2
20260903121552 57 331 1.0 5.0 0.00 0.00 0.00 74 1015.3
20260903121031 57 331 0.0 6.0 0.00 0.00 0.00 74 1015.4
20260903120533 57 0 1.0 6.0 0.00 0.00 0.00 75 1015.4
20260903120051 58 325 0.0 5.0 0.00 0.00 0.00 75 1015.4
20260903115535 58 0 1.0 6.0 0.00 0.00 0.00 74 1015.4
20260903115031 58 0 1.0 6.0 0.00 0.00 0.00 74 1015.5
20260903114549 58 0 1.0 6.0 0.00 0.00 0.00 74 1015.5
20260903114033 58 317 1.0 10.0 0.00 0.00 0.00 74 1015.6
20260903113531 58 352 2.0 10.0 0.00 0.00 0.00 74 1015.6
20260903113053 58 277 1.0 8.0 0.00 0.00 0.00 73 1015.6
20260903112531 58 341 0.0 8.0 0.00 0.00 0.00 73 1015.5
20260903112031 58 0 1.0 5.0 0.00 0.00 0.00 73 1015.5
20260903111558 58 352 0.0 5.0 0.00 0.00 0.00 73 1015.6
20260903111032 58 339 1.0 5.0 0.00 0.00 0.00 73 1015.6
20260903110528 58 360 0.0 5.0 0.00 0.00 0.00 73 1015.6
20260903110046 58 325 1.0 5.0 0.00 0.00 0.00 73 1015.7
20260903105535 58 331 1.0 5.0 0.00 0.00 0.00 72 1015.8
20260903105033 58 265 0.0 4.0 0.00 0.00 0.00 73 1015.8
20260903104612 58 0 0.0 3.0 0.00 0.00 0.00 73 1015.8
20260903104030 58 0 0.0 2.0 0.00 0.00 0.00 73 1015.8
20260903103531 58 246 0.0 2.0 0.00 0.00 0.00 73 1015.7
20260903103100 58 213 0.0 2.0 0.00 0.00 0.00 73 1015.7
20260903102531 58 0 0.0 2.0 0.00 0.00 0.00 73 1015.7
20260903102031 58 0 0.0 2.0 0.00 0.00 0.00 73 1015.7
20260903101552 58 0 0.0 2.0 0.00 0.00 0.00 73 1015.7
20260903101028 58 0 0.0 2.0 0.00 0.00 0.00 73 1015.8
20260903100529 58 0 0.0 2.0 0.00 0.00 0.00 73 1015.8
20260903100048 58 0 0.0 2.0 0.00 0.00 0.00 73 1015.9
20260903095527 59 280 0.0 2.0 0.00 0.00 0.00 73 1015.9
20260903095028 59 0 0.0 2.0 0.00 0.00 0.00 73 1016.0
20260903094551 59 262 0.0 3.0 0.00 0.00 0.00 73 1016.0
20260903094035 59 0 0.0 3.0 0.00 0.00 0.00 73 1016.1
20260903093528 59 0 0.0 4.0 0.00 0.00 0.00 73 1016.0
20260903093102 59 291 0.0 4.0 0.00 0.00 0.00 73 1016.1
20260903092530 59 342 0.0 4.0 0.00 0.00 0.00 73 1016.1
20260903092035 59 0 0.0 4.0 0.00 0.00 0.00 73 1016.2
20260903091552 59 279 0.0 4.0 0.00 0.00 0.00 73 1016.2
20260903091032 59 333 1.0 5.0 0.00 0.00 0.00 73 1016.2
20260903090530 59 0 0.0 5.0 0.00 0.00 0.00 73 1016.2
20260903090046 59 0 0.0 3.0 0.00 0.00 0.00 73 1016.2
20260903085529 59 0 0.0 3.0 0.00 0.00 0.00 73 1016.2
20260903085028 59 294 0.0 3.0 0.00 0.00 0.00 73 1016.2
20260903084546 59 0 0.0 2.0 0.00 0.00 0.00 73 1016.2
20260903084031 59 0 0.0 2.0 0.00 0.00 0.00 73 1016.2
20260903083529 59 0 0.0 2.0 0.00 0.00 0.00 72 1016.2
20260903083058 59 304 0.0 2.0 0.00 0.00 0.00 72 1016.3
20260903082531 59 269 0.0 2.0 0.00 0.00 0.00 72 1016.2
20260903082030 59 0 0.0 1.0 0.00 0.00 0.00 72 1016.2
20260903081611 59 0 0.0 3.0 0.00 0.00 0.00 72 1016.2
20260903081032 60 0 0.0 6.0 0.00 0.00 0.00 72 1016.2
20260903080535 60 0 0.0 6.0 0.00 0.00 0.00 72 1016.2
20260903080047 60 331 0.0 5.0 0.00 0.00 0.00 72 1016.2
20260903075530 60 333 0.0 5.0 0.00 0.00 0.00 72 1016.2
20260903075029 60 0 0.0 3.0 0.00 0.00 0.00 72 1016.3
20260903074555 60 0 0.0 3.0 0.00 0.00 0.00 72 1016.2
20260903074034 60 338 0.0 2.0 0.00 0.00 0.00 72 1016.2
20260903073529 60 285 0.0 1.0 0.00 0.00 0.00 71 1016.3
20260903073051 60 0 0.0 1.0 0.00 0.00 0.00 71 1016.3
20260903072531 60 0 0.0 2.0 0.00 0.00 0.00 71 1016.3
20260903072031 60 0 0.0 2.0 0.00 0.00 0.00 71 1016.4
20260903071555 60 285 0.0 2.0 0.00 0.00 0.00 71 1016.4
20260903071031 60 0 0.0 2.0 0.00 0.00 0.00 71 1016.4
20260903070531 60 0 0.0 2.0 0.00 0.00 0.00 70 1016.3
20260903070048 60 0 0.0 2.0 0.00 0.00 0.00 70 1016.3
20260903065530 60 0 0.0 2.0 0.00 0.00 0.00 70 1016.3
20260903065029 60 273 0.0 2.0 0.00 0.00 0.00 70 1016.3
20260903064547 60 0 0.0 1.0 0.00 0.00 0.00 70 1016.3
20260903064032 60 0 0.0 1.0 0.00 0.00 0.00 70 1016.3
20260903063527 60 0 0.0 1.0 0.00 0.00 0.00 70 1016.4
20260903063048 60 0 0.0 1.0 0.00 0.00 0.00 70 1016.4
20260903062529 60 273 0.0 1.0 0.00 0.00 0.00 70 1016.5
20260903062031 60 0 0.0 1.0 0.00 0.00 0.00 70 1016.5
20260903061550 61 0 0.0 1.0 0.00 0.00 0.00 70 1016.5
20260903061030 61 283 0.0 1.0 0.00 0.00 0.00 70 1016.5
20260903060530 61 0 0.0 1.0 0.00 0.00 0.00 69 1016.4
20260903060045 61 0 0.0 2.0 0.00 0.00 0.00 69 1016.5
20260903055530 61 0 0.0 2.0 0.00 0.00 0.00 69 1016.6
20260903055029 61 0 0.0 2.0 0.00 0.00 0.00 68 1016.6
20260903054543 62 0 0.0 3.0 0.00 0.00 0.00 69 1016.6
20260903054028 62 0 0.0 3.0 0.00 0.00 0.00 68 1016.6
20260903053528 62 333 0.0 2.0 0.00 0.00 0.00 69 1016.7
20260903053049 62 0 0.0 0.0 0.00 0.00 0.00 68 1016.7
20260903052530 62 0 0.0 2.0 0.00 0.00 0.00 67 1016.8
20260903052031 62 0 0.0 2.0 0.00 0.00 0.00 67 1016.8
20260903051548 62 0 0.0 2.0 0.00 0.00 0.00 67 1016.8
20260903051030 63 0 0.0 2.0 0.00 0.00 0.00 67 1016.8
20260903050528 63 337 1.0 3.0 0.00 0.00 0.00 67 1016.8
20260903050058 63 336 1.0 3.0 0.00 0.00 0.00 67 1016.7
20260903045532 63 331 1.0 3.0 0.00 0.00 0.00 67 1016.8
20260903045028 63 331 0.0 3.0 0.00 0.00 0.00 67 1016.8
20260903044551 63 0 0.0 2.0 0.00 0.00 0.00 67 1016.8
20260903044028 63 0 0.0 2.0 0.00 0.00 0.00 67 1016.8
20260903043528 63 0 0.0 2.0 0.00 0.00 0.00 67 1016.8
20260903043047 63 0 0.0 2.0 0.00 0.00 0.00 67 1016.7
20260903042530 63 0 0.0 2.0 0.00 0.00 0.00 68 1016.7
20260903042030 63 306 0.0 1.0 0.00 0.00 0.00 67 1016.7
20260903041547 63 0 0.0 0.0 0.00 0.00 0.00 67 1016.6
20260903041028 63 0 0.0 0.0 0.00 0.00 0.00 66 1016.6
20260903040529 64 0 0.0 1.0 0.00 0.00 0.00 66 1016.6
20260903040054 64 0 0.0 1.0 0.00 0.00 0.00 65 1016.6
20260903035533 64 0 0.0 1.0 0.00 0.00 0.00 65 1016.5
20260903035028 64 0 0.0 1.0 0.00 0.00 0.00 65 1016.5
20260903034548 64 0 0.0 0.0 0.00 0.00 0.00 64 1016.3
20260903034027 64 0 0.0 0.0 0.00 0.00 0.00 64 1016.2
20260903033527 65 0 0.0 2.0 0.00 0.00 0.00 63 1016.2
20260903033047 65 0 0.0 3.0 0.00 0.00 0.00 63 1016.2
20260903032532 65 0 0.0 3.0 0.00 0.00 0.00 63 1016.2
20260903032030 65 10 0.0 3.0 0.00 0.00 0.00 63 1016.2
20260903031547 65 0 0.0 3.0 0.00 0.00 0.00 62 1016.1
20260903031030 65 352 1.0 3.0 0.00 0.00 0.00 62 1016.0
20260903030531 66 22 0.0 4.0 0.00 0.00 0.00 61 1016.0
20260903030055 66 0 1.0 5.0 0.00 0.00 0.00 61 1015.9
20260903025534 66 5 1.0 5.0 0.00 0.00 0.00 60 1015.9
20260903025030 66 351 2.0 5.0 0.00 0.00 0.00 60 1015.9
20260903024548 67 331 2.0 5.0 0.00 0.00 0.00 59 1016.1
20260903024033 67 325 2.0 5.0 0.00 0.00 0.00 59 1016.0
20260903023537 67 352 2.0 7.0 0.00 0.00 0.00 58 1016.1
20260903023044 67 315 1.0 7.0 0.00 0.00 0.00 58 1016.1
20260903022529 68 329 2.0 5.0 0.00 0.00 0.00 57 1016.2
20260903022028 68 0 1.0 6.0 0.00 0.00 0.00 57 1016.2
20260903021552 68 53 2.0 6.0 0.00 0.00 0.00 57 1016.2
20260903021031 68 0 1.0 7.0 0.00 0.00 0.00 57 1016.2
20260903020531 68 0 1.0 8.0 0.00 0.00 0.00 57 1016.3
20260903020104 69 72 1.0 9.0 0.00 0.00 0.00 56 1016.2
20260903015530 69 77 2.0 10.0 0.00 0.00 0.00 55 1016.2
20260903015029 69 331 3.0 12.0 0.00 0.00 0.00 55 1016.2
20260903014552 69 5 6.0 12.0 0.00 0.00 0.00 54 1016.2
20260903014030 69 5 3.0 9.0 0.00 0.00 0.00 54 1016.3
20260903013528 69 329 2.0 11.0 0.00 0.00 0.00 55 1016.3
20260903013050 69 333 5.0 11.0 0.00 0.00 0.00 55 1016.3
20260903012527 69 9 6.0 11.0 0.00 0.00 0.00 55 1016.3
20260903012032 69 19 3.0 9.0 0.00 0.00 0.00 55 1016.3
20260903011542 69 29 1.0 10.0 0.00 0.00 0.00 55 1016.4
20260903011030 70 340 4.0 10.0 0.00 0.00 0.00 54 1016.4
20260903010531 70 319 5.0 10.0 0.00 0.00 0.00 54 1016.4
20260903010052 71 74 1.0 10.0 0.00 0.00 0.00 53 1016.3
20260903005532 71 302 2.0 10.0 0.00 0.00 0.00 54 1016.4
20260903005032 71 11 4.0 10.0 0.00 0.00 0.00 53 1016.4
20260903004550 71 19 2.0 7.0 0.00 0.00 0.00 54 1016.4
20260903004033 70 49 1.0 8.0 0.00 0.00 0.00 55 1016.5
20260903003528 70 333 2.0 8.0 0.00 0.00 0.00 54 1016.5
20260903003047 70 346 1.0 6.0 0.00 0.00 0.00 53 1016.5
20260903002530 71 338 2.0 6.0 0.00 0.00 0.00 52 1016.5
20260903002030 71 92 1.0 6.0 0.00 0.00 0.00 53 1016.6
20260903001559 71 36 1.0 10.0 0.00 0.00 0.00 53 1016.6
20260903001029 71 348 3.0 10.0 0.00 0.00 0.00 51 1016.6
20260903000529 71 352 2.0 10.0 0.00 0.00 0.00 52 1016.7
20260903000057 71 344 3.0 9.0 0.00 0.00 0.00 51 1016.6
20260902235531 71 323 2.0 9.0 0.00 0.00 0.00 51 1016.8
20260902235030 72 269 3.0 9.0 0.00 0.00 0.00 50 1016.7
20260902234548 73 5 3.0 13.0 0.00 0.00 0.00 49 1016.8
20260902234033 74 312 5.0 13.0 0.00 0.00 0.00 48 1016.8
20260902233528 74 85 2.0 6.0 0.00 0.00 0.00 49 1016.8
20260902233057 74 325 1.0 7.0 0.00 0.00 0.00 49 1016.8
20260902232534 74 318 2.0 9.0 0.00 0.00 0.00 49 1016.8
20260902232029 74 346 3.0 9.0 0.00 0.00 0.00 49 1016.8
20260902231555 75 39 3.0 9.0 0.00 0.00 0.00 48 1016.8
20260902231029 74 349 4.0 10.0 0.00 0.00 0.00 50 1016.9
20260902230529 72 21 3.0 10.0 0.00 0.00 0.00 51 1017.1
20260902230050 71 99 1.0 5.0 0.00 0.00 0.00 53 1017.1
20260902225528 71 106 1.0 9.0 0.00 0.00 0.00 53 1017.2
20260902225031 72 86 1.0 9.0 0.00 0.00 0.00 53 1017.3
20260902224548 71 48 2.0 9.0 0.00 0.00 0.00 55 1017.2
20260902224033 70 136 2.0 7.0 0.00 0.00 0.00 56 1017.3
20260902223528 70 135 3.0 10.0 0.00 0.00 0.00 55 1017.3
20260902223046 69 77 3.0 10.0 0.00 0.00 0.00 57 1017.3
20260902222531 70 144 2.0 10.0 0.00 0.00 0.00 56 1017.2
20260902222031 70 137 1.0 10.0 0.00 0.00 0.00 57 1017.3
20260902221610 70 84 3.0 10.0 0.00 0.00 0.00 56 1017.4
20260902221032 70 80 2.0 7.0 0.00 0.00 0.00 56 1017.4
20260902220531 70 327 2.0 6.0 0.00 0.00 0.00 56 1017.4
20260902220101 71 86 2.0 12.0 0.00 0.00 0.00 55 1017.4
20260902215531 71 46 2.0 12.0 0.00 0.00 0.00 56 1017.4
20260902215030 70 5 3.0 8.0 0.00 0.00 0.00 57 1017.4
20260902214551 70 115 2.0 8.0 0.00 0.00 0.00 58 1017.5
20260902214031 70 19 2.0 9.0 0.00 0.00 0.00 58 1017.5
20260902213533 70 0 1.0 11.0 0.00 0.00 0.00 58 1017.6
20260902213053 71 142 4.0 11.0 0.00 0.00 0.00 56 1017.6
20260902212530 71 5 3.0 11.0 0.00 0.00 0.00 56 1017.7
20260902212030 70 65 1.0 11.0 0.00 0.00 0.00 59 1017.5
20260902211553 70 265 3.0 12.0 0.00 0.00 0.00 57 1017.7
20260902211029 70 26 5.0 12.0 0.00 0.00 0.00 56 1017.7
20260902210530 70 208 2.0 8.0 0.00 0.00 0.00 58 1017.7
20260902210053 69 130 2.0 8.0 0.00 0.00 0.00 59 1017.7
20260902205529 69 136 3.0 8.0 0.00 0.00 0.00 60 1017.7
20260902205032 70 107 1.0 10.0 0.00 0.00 0.00 57 1017.7
20260902204608 71 96 2.0 10.0 0.00 0.00 0.00 57 1017.7
20260902204028 70 286 4.0 10.0 0.00 0.00 0.00 57 1017.9
20260902203531 70 299 3.0 10.0 0.00 0.00 0.00 59 1017.9
20260902203050 68 55 1.0 5.0 0.00 0.00 0.00 62 1017.8
20260902202531 67 65 1.0 9.0 0.00 0.00 0.00 61 1017.9
20260902202030 68 101 1.0 9.0 0.00 0.00 0.00 60 1017.9
20260902201545 68 57 2.0 9.0 0.00 0.00 0.00 61 1017.9
20260902201034 68 183 2.0 8.0 0.00 0.00 0.00 59 1018.0
20260902200533 69 105 0.0 8.0 0.00 0.00 0.00 59 1018.0
20260902200052 69 167 2.0 10.0 0.00 0.00 0.00 59 1018.1
20260902195529 68 0 2.0 10.0 0.00 0.00 0.00 60 1018.1
20260902195029 68 350 3.0 10.0 0.00 0.00 0.00 60 1018.1
20260902194556 68 5 2.0 9.0 0.00 0.00 0.00 60 1018.0
20260902194026 68 86 0.0 6.0 0.00 0.00 0.00 62 1018.0
20260902193530 67 336 0.0 10.0 0.00 0.00 0.00 62 1018.2
20260902193047 67 352 2.0 10.0 0.00 0.00 0.00 60 1018.3
20260902192530 67 352 3.0 9.0 0.00 0.00 0.00 61 1018.4
20260902192028 67 98 2.0 8.0 0.00 0.00 0.00 62 1018.4
20260902191553 67 312 0.0 8.0 0.00 0.00 0.00 62 1018.5
20260902191028 67 343 3.0 8.0 0.00 0.00 0.00 61 1018.5
20260902190529 67 352 3.0 9.0 0.00 0.00 0.00 61 1018.5
20260902190052 67 102 2.0 10.0 0.00 0.00 0.00 62 1018.6
20260902185530 67 360 2.0 10.0 0.00 0.00 0.00 62 1018.6
20260902185030 67 5 1.0 8.0 0.00 0.00 0.00 62 1018.7
20260902184548 67 334 1.0 8.0 0.00 0.00 0.00 63 1018.5
20260902184030 67 323 3.0 8.0 0.00 0.00 0.00 62 1018.5
20260902183530 66 332 1.0 8.0 0.00 0.00 0.00 62 1018.5
20260902183112 66 0 2.0 8.0 0.00 0.00 0.00 62 1018.5
20260902182531 66 360 4.0 8.0 0.00 0.00 0.00 62 1018.5
20260902182031 66 75 0.0 7.0 0.00 0.00 0.00 63 1018.4
20260902181544 66 0 3.0 7.0 0.00 0.00 0.00 62 1018.4
20260902181031 66 54 1.0 7.0 0.00 0.00 0.00 63 1018.5
20260902180529 65 300 2.0 6.0 0.00 0.00 0.00 63 1018.4
20260902180050 65 140 1.0 5.0 0.00 0.00 0.00 63 1018.5
20260902175530 65 36 1.0 8.0 0.00 0.00 0.00 62 1018.5
20260902175027 65 39 1.0 8.0 0.00 0.00 0.00 63 1018.4
20260902174546 65 342 4.0 8.0 0.00 0.00 0.00 63 1018.5
20260902174029 65 11 4.0 8.0 0.00 0.00 0.00 65 1018.5
20260902173529 64 360 2.0 8.0 0.00 0.00 0.00 65 1018.4
20260902173056 64 306 1.0 5.0 0.00 0.00 0.00 65 1018.5
20260902172529 64 314 1.0 9.0 0.00 0.00 0.00 65 1018.4
20260902172030 64 341 2.0 9.0 0.00 0.00 0.00 65 1018.3
20260902171610 63 348 3.0 9.0 0.00 0.00 0.00 65 1018.2